This is the latest recevied weather packets stored in our database for station/object DK6GC-10. If no packets are shown the sender has not sent any weather packets the latest 10 day(s).
| Time | Temp. | Humidity | Pressure | Rain* | Wind** | Luminosity | Snow |
|---|---|---|---|---|---|---|---|
| 1777646718 | 25° C | 25% | 1023 hPa | - | - | - | - |
| 1777645818 | 25° C | 25% | 1023.2 hPa | - | - | - | - |
| 1777644918 | 25° C | 26% | 1023.4 hPa | - | - | - | - |
| 1777644017 | 25° C | 24% | 1023.5 hPa | - | - | - | - |
| 1777643117 | 25° C | 23% | 1023.7 hPa | - | - | - | - |
| 1777642217 | 24.44° C | 24% | 1023.7 hPa | - | - | - | - |
| 1777641317 | 24.44° C | 26% | 1023.9 hPa | - | - | - | - |
| 1777640417 | 24.44° C | 27% | 1024.1 hPa | - | - | - | - |
| 1777639516 | 23.33° C | 24% | 1024.2 hPa | - | - | - | - |
| 1777638616 | 23.33° C | 27% | 1024.4 hPa | - | - | - | - |
| 1777637716 | 23.33° C | 29% | 1024.6 hPa | - | - | - | - |
| 1777636820 | 23.33° C | 29% | 1024.7 hPa | - | - | - | - |
| 1777635920 | 22.78° C | 28% | 1024.8 hPa | - | - | - | - |
| 1777635020 | 21.67° C | 30% | 1025 hPa | - | - | - | - |
| 1777634120 | 21.11° C | 28% | 1025.3 hPa | - | - | - | - |
| 1777633220 | 20.56° C | 29% | 1025.5 hPa | - | - | - | - |
| 1777632319 | 20° C | 30% | 1025.7 hPa | - | - | - | - |
| 1777631419 | 20° C | 33% | 1025.9 hPa | - | - | - | - |
| 1777630519 | 20° C | 33% | 1026 hPa | - | - | - | - |
| 1777629619 | 19.44° C | 32% | 1026.1 hPa | - | - | - | - |
| 1777628719 | 18.89° C | 33% | 1026.2 hPa | - | - | - | - |
| 1777627819 | 18.33° C | 33% | 1026.2 hPa | - | - | - | - |
| 1777626918 | 17.78° C | 35% | 1026.3 hPa | - | - | - | - |
| 1777626018 | 16.67° C | 37% | 1026.3 hPa | - | - | - | - |
| 1777625118 | 16.11° C | 38% | 1026.2 hPa | - | - | - | - |
* Rain since midnight (hover to see other rain measurements)
** Current wind speed in m/s (hover to see current wind gust speed)